Tracking 35237 objects as of 5-Sep-2026
HD Live streaming from Space Station
objects crossing your sky now

SL-12 R/B(AUX MOTOR)

Track SL-12 R/B(AUX MOTOR) now!
10-day predictions


NORAD ID: 33472
Int'l Code: 2008-067G
Launch date: December 25, 2008
Source: Commonwealth of Independent States (former USSR) (CIS)
Launch site: TYURATAM MISSILE AND SPACE COMPLEX (TTMTR)

Note: This is a ROCKET BODY
Your satellite tracking list
Your tracking list is empty




NASA's NSSDC Master Catalog

Two Line Element Set (TLE):
1 33472U 08067G   26243.48864441 -.00000000  00000-0  10299-3 0  9991
2 33472  65.0407  33.1904 5578496 275.1204  26.8531  4.40026414275170
Source of the keplerian elements: AFSPC